Regional Weather Roundup
Issued by NWS Albany, NY

Home | Current Version | Previous Version | Text Only | Print | Product List | Glossary On
Versions: 1 2 3 4 5 6 7 8 9 10 11 12 13 14 15 16 17 18 19 20 21 22 23 24 25 26 27
000
ASUS41 KALY 270710
RWRALY

NEW YORK STATE HOURLY WEATHER ROUNDUP
NATIONAL WEATHER SERVICE ALBANY NY
300 AM EDT THU JUL 27 2017

NOTE: "FAIR" INDICATES FEW OR NO CLOUDS BELOW 12,000 FEET WITH NO
SIGNIFICANT WEATHER AND/OR NO OBSTRUCTIONS TO VISIBILITY.

NYZ032-033-038>043-046>054-057>066-NYZ062>081-082-084-270800-
EAST


CITY           SKY/WX    TMP DP  RH WIND       PRES   REMARKS
ALBANY         CLOUDY    66  56  70 S8        30.02F
GLENS FALLS    LGT RAIN  64  61  90 SW3       30.01F
POUGHKEEPSIE   PTCLDY    62  57  83 CALM      30.07F
NEWBURGH       CLOUDY    63  57  82 CALM      30.10F
MONTGOMERY     MOCLDY    60  57  89 CALM      30.08F
WHITE PLAINS   CLOUDY    62  57  83 CALM      30.09F
ISLIP          PTCLDY    62  58  86 SW3       30.09F
NEW YORK CITY  CLOUDY    68  61  78 SW7       30.08F
CENTRAL PARK   CLOUDY    66  60  81 VRB6      30.11F
$$

NYZ005>009-017-018-044>046-055-056-270800-
CENTRAL


CITY           SKY/WX    TMP DP  RH WIND       PRES   REMARKS
FULTON         CLOUDY    68  62  81 S7        29.97F
SYRACUSE       CLOUDY    69  60  73 SW5       29.97F
ROME           CLOUDY    67  62  84 E5        29.99F
ELMIRA         CLOUDY    65  62  90 CALM      30.01F
BINGHAMTON     CLOUDY    63  60  90 SW8       30.05F
$$

NYZ026>034-041>043-087-270800-
NORTH


CITY           SKY/WX    TMP DP  RH WIND       PRES   REMARKS
WATERTOWN      CLOUDY    67  63  87 S6        29.95F
FORT DRUM      NOT AVBL
OGDENSBURG     DRIZZLE   64  63  96 S6        29.93F
MASSENA        CLOUDY    64  62  93 S3        29.94F
SARANAC LAKE   LGT RAIN  60  60 100 CALM      29.98F
PLATTSBURGH    LGT RAIN  63  61  93 CALM      29.95F
$$

NYZ001>004-010>016-019>021-085-270800-
WEST


CITY           SKY/WX    TMP DP  RH WIND       PRES   REMARKS
NIAGARA FALLS  CLOUDY    71  62  73 SW6       29.97F
BUFFALO        CLOUDY    67  62  84 S7        29.98F
DUNKIRK        CLOUDY    70  62  76 S9        29.98F
JAMESTOWN      CLOUDY    63  57  82 SW6       30.03F
WELLSVILLE     CLOUDY    66  59  78 SW9       30.06F
ROCHESTER      LGT RAIN  68  64  87 SW6       29.98F
PENN YAN       LGT RAIN  69  59  70 SW6       30.01F
$$

             KEY
       WCI = WIND CHILL INDEX
       VSB = VISIBILITY
       HX  = HEAT INDEX
$$




USA.gov is the U.S. government's official web portal to all federal, state and local government web resources and services.